{"data":{"norad_id":59762,"epoch":"2026-05-24T19:47:30.452064Z","epoch_age_seconds":83518,"freshness":"FRESH","line1":"1 59762U 24091K   26144.82465801  .00000689  00000+0  10541-4 0  9993","line2":"2 59762  53.1585 190.7650 0000820  89.0837 271.0275 15.69709687117473","mean_motion":15.69709687,"eccentricity":8.2e-5,"inclination_deg":53.1585,"raan_deg":190.765,"arg_perigee_deg":89.0837,"mean_anomaly_deg":271.0275,"bstar":1.0541e-5,"rev_number":11747,"period_min":91.736708508954,"perigee_km":359.17514120514,"apogee_km":360.2801510071,"semimajor_km":6737.8646461061,"source":"CELESTRAK","updated_at":"2026-05-25T13:38:19.057474Z"}}